UAL2273 KSFO-KLAS

Flight info

Callsign UAL2273
Flight time N/A
Altitude 37000
Route WESLA5 NTELL Q174 FLCHR COKTL4
Aircraft B772/H-SDE2E3FGHIJ5LORVWXY/LB1D1

Departure

Time 2026-05-04 12:16
Airport San Francisco International Airport (KSFO)

Arrival

Time N/A
Airport Harry Reid International Airport (KLAS)
Time Latitude Longitude Altitude Speed Heading
2026-05-04 11:40 37.61894 -122.39254 26 ft 0 kts 208°
2026-05-04 12:04 37.61913 -122.39241 25 ft 4 kts 207°
2026-05-04 12:05 37.61933 -122.39229 24 ft 3 kts 207°
2026-05-04 12:05 37.61952 -122.39210 24 ft 4 kts 251°
2026-05-04 12:05 37.61951 -122.39182 24 ft 3 kts 294°
2026-05-04 12:05 37.61940 -122.39151 25 ft 4 kts 296°
2026-05-04 12:06 37.61932 -122.39133 25 ft 0 kts 298°
2026-05-04 12:12 37.61962 -122.39202 26 ft 16 kts 300°
2026-05-04 12:12 37.62053 -122.39221 26 ft 15 kts 18°
2026-05-04 12:13 37.62145 -122.39164 26 ft 15 kts 28°
2026-05-04 12:14 37.62531 -122.39334 26 ft 0 kts 339°
2026-05-04 12:15 37.62540 -122.39337 26 ft 6 kts 345°
2026-05-04 12:15 37.62579 -122.39327 26 ft 6 kts 26°
2026-05-04 12:15 37.62606 -122.39291 26 ft 6 kts 64°
2026-05-04 12:16 37.62602 -122.39242 26 ft 6 kts 112°
2026-05-04 12:16 37.62550 -122.39122 26 ft 43 kts 118°
2026-05-04 12:16 37.62230 -122.38353 27 ft 152 kts 118°
2026-05-04 12:16 37.61666 -122.36951 685 ft 194 kts 113°
2026-05-04 12:17 37.61167 -122.35274 1904 ft 211 kts 110°
2026-05-04 12:17 37.60653 -122.33466 3206 ft 225 kts 110°
2026-05-04 12:17 37.60123 -122.31589 4560 ft 240 kts 111°
2026-05-04 12:17 37.59482 -122.29366 4973 ft 282 kts 111°
2026-05-04 12:18 37.58848 -122.27108 6591 ft 263 kts 111°
2026-05-04 12:18 37.58244 -122.24935 7707 ft 266 kts 111°
2026-05-04 12:18 37.57619 -122.22707 8567 ft 274 kts 110°
2026-05-04 12:18 37.56977 -122.20415 9487 ft 280 kts 110°
2026-05-04 12:19 37.56325 -122.18081 10375 ft 286 kts 109°
2026-05-04 12:19 37.55637 -122.15618 10737 ft 312 kts 109°
2026-05-04 12:19 37.54892 -122.12944 11256 ft 330 kts 109°
2026-05-04 12:19 37.54120 -122.10174 12114 ft 338 kts 109°
2026-05-04 12:20 37.53336 -122.07360 13115 ft 343 kts 109°
2026-05-04 12:20 37.52543 -122.04516 14130 ft 346 kts 109°
2026-05-04 12:20 37.51740 -122.01636 14827 ft 351 kts 109°
2026-05-04 12:20 37.50927 -121.98724 15014 ft 356 kts 109°
2026-05-04 12:21 37.50106 -121.95787 15011 ft 355 kts 109°
2026-05-04 12:21 37.49288 -121.92866 15006 ft 352 kts 109°
2026-05-04 12:21 37.48476 -121.89970 15003 ft 350 kts 109°
2026-05-04 12:21 37.47667 -121.87084 14992 ft 350 kts 109°
2026-05-04 12:22 37.46856 -121.84198 14998 ft 349 kts 109°
2026-05-04 12:22 37.46046 -121.81315 14999 ft 349 kts 109°
2026-05-04 12:22 37.45236 -121.78437 14989 ft 349 kts 109°
2026-05-04 12:22 37.44429 -121.75572 14998 ft 347 kts 109°
2026-05-04 12:23 37.43620 -121.72703 15148 ft 352 kts 109°
2026-05-04 12:23 37.42798 -121.69789 16066 ft 354 kts 109°
2026-05-04 12:23 37.41971 -121.66863 17022 ft 356 kts 109°
2026-05-04 12:23 37.41135 -121.63909 17898 ft 361 kts 109°
2026-05-04 12:24 37.40288 -121.60920 18726 ft 365 kts 109°
2026-05-04 12:24 37.39431 -121.57894 19491 ft 369 kts 109°
2026-05-04 12:24 37.38564 -121.54842 20224 ft 373 kts 109°
2026-05-04 12:24 37.37688 -121.51760 20978 ft 376 kts 109°
2026-05-04 12:25 37.36802 -121.48647 21722 ft 380 kts 110°
2026-05-04 12:25 37.35907 -121.45502 22473 ft 384 kts 110°
2026-05-04 12:25 37.35001 -121.42330 23239 ft 388 kts 110°
2026-05-04 12:25 37.34087 -121.39126 23938 ft 392 kts 110°
2026-05-04 12:26 37.33158 -121.35877 24487 ft 399 kts 111°
2026-05-04 12:26 37.32205 -121.32552 24881 ft 408 kts 111°
2026-05-04 12:26 37.31240 -121.29189 24993 ft 412 kts 111°
2026-05-04 12:26 37.30270 -121.25806 24990 ft 411 kts 111°
2026-05-04 12:27 37.29303 -121.22439 24984 ft 409 kts 111°
2026-05-04 12:27 37.28336 -121.19075 24987 ft 409 kts 111°
2026-05-04 12:27 37.27382 -121.15761 24991 ft 410 kts 111°
2026-05-04 12:27 37.26411 -121.12396 24992 ft 410 kts 111°
2026-05-04 12:28 37.25439 -121.09028 24991 ft 411 kts 111°
2026-05-04 12:28 37.24466 -121.05661 24989 ft 411 kts 111°
2026-05-04 12:28 37.23490 -121.02289 24988 ft 411 kts 111°
2026-05-04 12:28 37.22511 -120.98911 24980 ft 412 kts 111°
2026-05-04 12:29 37.21530 -120.95532 24970 ft 413 kts 111°
2026-05-04 12:29 37.20533 -120.92099 24979 ft 414 kts 111°
2026-05-04 12:29 37.19545 -120.88702 24986 ft 415 kts 111°
2026-05-04 12:29 37.18553 -120.85297 24994 ft 416 kts 111°
2026-05-04 12:30 37.17572 -120.81933 24991 ft 417 kts 111°
2026-05-04 12:30 37.16573 -120.78513 24995 ft 418 kts 112°
2026-05-04 12:30 37.15572 -120.75091 24994 ft 418 kts 112°
2026-05-04 12:30 37.14571 -120.71668 24988 ft 418 kts 112°
2026-05-04 12:31 37.13564 -120.68232 25155 ft 423 kts 112°
2026-05-04 12:31 37.12544 -120.64758 25771 ft 427 kts 113°
2026-05-04 12:31 37.11504 -120.61228 26194 ft 437 kts 114°
2026-05-04 12:31 37.10443 -120.57626 26663 ft 444 kts 114°
2026-05-04 12:32 37.09368 -120.53979 27209 ft 449 kts 115°
2026-05-04 12:32 37.07176 -120.46552 28272 ft 460 kts 116°
2026-05-04 12:32 37.06059 -120.42775 28766 ft 465 kts 116°
2026-05-04 12:33 37.04929 -120.38959 29229 ft 471 kts 117°
2026-05-04 12:33 37.03781 -120.35092 29656 ft 477 kts 117°
2026-05-04 12:33 37.02619 -120.31181 30094 ft 482 kts 117°
2026-05-04 12:33 37.01443 -120.27225 30395 ft 489 kts 118°
2026-05-04 12:34 37.00244 -120.23201 30636 ft 497 kts 118°
2026-05-04 12:34 36.99443 -120.20514 30878 ft 499 kts 118°
2026-05-04 12:34 36.98223 -120.16426 31136 ft 507 kts 118°
2026-05-04 12:35 36.95701 -120.08005 31245 ft 526 kts 118°
2026-05-04 12:35 36.94414 -120.03696 31429 ft 532 kts 118°
2026-05-04 12:35 36.93976 -120.02229 31532 ft 532 kts 118°